Nampa, ID

10:06 AM MDT on September 24, 2017 (GMT -0600)
Nampa

Weather History for KMAN - September, 2013

Change the Weather History Date:

Sunday, September 29, 2013

  Actual Average (KBOI) Record (KBOI)
Temperature  
Mean Temperature 58 °F -  
Max Temperature 69 °F 75 °F 95 °F (1992)
Min Temperature 48 °F 46 °F 27 °F (1954)
Degree Days  
Heating Degree Days 6    
Growing Degree Days 8 (Base 50)    
Moisture  
Dew Point 42 °F    
Average Humidity 64    
Maximum Humidity 100    
Minimum Humidity 26    
Precipitation  
Precipitation 0.07 in - - ()
Sea Level Pressure  
Sea Level Pressure 29.81 in    
Wind  
Wind Speed 10 mph (West)    
Max Wind Speed 20 mph    
Max Gust Speed 31 mph    
Visibility 10 miles    
Events      
Averages and records for this station are not official NWS values.
T = Trace of Precipitation, MM = Missing Value Source: NWS Daily Summary

Daily Weather History Graph

Daily Weather History Graph

Search for Another Location

Airport or City:

Trip Planner

Search our weather history database for the weather conditions in past years. The results will help you decide how hot, cold, wet, or windy it might be!

Date:

Astronomy

Sep. 29, 2013 Rise Set
Actual Time 7:41 AM MDT 7:30 PM MDT
Civil Twilight 7:13 AM MDT 7:58 PM MDT
Nautical Twilight 6:39 AM MDT 8:31 PM MDT
Astronomical Twilight 6:06 AM MDT 9:05 PM MDT
Moon 2:18 AM MDT (9/29) 4:36 PM MDT (9/29)
Length of Visible Light 12h 45m
Length of Day
11h 48m
Waning Crescent, 26% of the Moon is Illuminated
Sep 29
Waning Crescent
Oct 4
New
Oct 11
First Quarter
Oct 18
Full
Oct 26
Last Quarter

Hourly Weather History & Observations

Time (MDT) Temp. Dew Point Humidity Pressure Visibility Wind Dir Wind Speed Gust Speed Precip Events Conditions
12:15 AM 64.4 °F 37.4 °F 37% 29.80 in 10.0 mi SE 11.5 mph 17.3 mph N/A   Scattered Clouds
12:35 AM 62.6 °F 39.2 °F 42% 29.79 in 10.0 mi SSE 8.1 mph - N/A   Clear
12:55 AM 62.6 °F 37.4 °F 39% 29.79 in 10.0 mi SSE 10.4 mph - N/A   Partly Cloudy
1:15 AM 64.4 °F 37.4 °F 37% 29.78 in 10.0 mi SE 11.5 mph 17.3 mph N/A   Mostly Cloudy
1:35 AM 64.4 °F 37.4 °F 37% 29.78 in 10.0 mi SE 9.2 mph - N/A   Mostly Cloudy
1:55 AM 62.6 °F 37.4 °F 39% 29.79 in 10.0 mi SE 9.2 mph - N/A   Scattered Clouds
2:15 AM 62.6 °F 37.4 °F 39% 29.78 in 10.0 mi ESE 9.2 mph - N/A   Scattered Clouds
2:35 AM 64.4 °F 37.4 °F 37% 29.78 in 10.0 mi SE 6.9 mph - N/A   Mostly Cloudy
2:55 AM 64.4 °F 37.4 °F 37% 29.78 in 10.0 mi SE 4.6 mph - N/A   Mostly Cloudy
3:15 AM 68.0 °F 35.6 °F 30% 29.78 in 10.0 mi SSW 11.5 mph 18.4 mph N/A   Partly Cloudy
3:35 AM 69.8 °F 35.6 °F 28% 29.78 in 10.0 mi SSW 13.8 mph 19.6 mph N/A   Partly Cloudy
3:55 AM 69.8 °F 35.6 °F 28% 29.78 in 10.0 mi SSW 13.8 mph 20.7 mph N/A   Mostly Cloudy
4:15 AM 69.8 °F 35.6 °F 28% 29.78 in 10.0 mi South 12.7 mph 18.4 mph N/A   Overcast
4:35 AM 68.0 °F 35.6 °F 30% 29.78 in 10.0 mi SSW 9.2 mph - N/A   Overcast
4:55 AM 68.0 °F 35.6 °F 30% 29.77 in 10.0 mi SW 13.8 mph 20.7 mph N/A   Overcast
5:15 AM 68.0 °F 32.0 °F 26% 29.77 in 10.0 mi SW 13.8 mph 27.6 mph N/A   Overcast
5:35 AM 68.0 °F 32.0 °F 26% 29.76 in 10.0 mi SW 17.3 mph 27.6 mph N/A   Overcast
5:55 AM 68.0 °F 32.0 °F 26% 29.76 in 10.0 mi SW 16.1 mph 23.0 mph N/A   Overcast
6:15 AM 68.0 °F 32.0 °F 26% 29.77 in 10.0 mi SW 16.1 mph 28.8 mph N/A   Overcast
6:35 AM 68.0 °F 32.0 °F 26% 29.78 in 10.0 mi SW 12.7 mph 28.8 mph N/A   Overcast
6:55 AM 68.0 °F 32.0 °F 26% 29.78 in 10.0 mi SW 19.6 mph 31.1 mph N/A   Overcast
7:15 AM 68.0 °F 32.0 °F 26% 29.78 in 10.0 mi SW 10.4 mph 23.0 mph N/A   Overcast
7:35 AM 68.0 °F 32.0 °F 26% 29.78 in 10.0 mi SW 10.4 mph 24.2 mph N/A   Overcast
7:55 AM 66.2 °F 32.0 °F 28% 29.78 in 10.0 mi SW 11.5 mph 20.7 mph N/A   Overcast
8:15 AM 66.2 °F 32.0 °F 28% 29.78 in 10.0 mi SW 17.3 mph 21.9 mph N/A   Overcast
8:35 AM 68.0 °F 32.0 °F 26% 29.79 in 10.0 mi WSW 11.5 mph 18.4 mph N/A   Overcast
8:55 AM 66.2 °F 32.0 °F 28% 29.79 in 10.0 mi SW 12.7 mph - N/A   Overcast
9:15 AM 66.2 °F 33.8 °F 30% 29.79 in 10.0 mi West 15.0 mph 26.5 mph N/A   Overcast
9:35 AM 66.2 °F 35.6 °F 32% 29.80 in 10.0 mi West 10.4 mph 17.3 mph N/A   Overcast
9:55 AM 62.6 °F 39.2 °F 42% 29.81 in 10.0 mi NNW 11.5 mph - N/A   Overcast
10:15 AM 59.0 °F 41.0 °F 51% 29.81 in 10.0 mi North 10.4 mph - N/A   Overcast
10:35 AM 59.0 °F 41.0 °F 51% 29.82 in 10.0 mi NNW 9.2 mph - N/A   Overcast
10:55 AM 59.0 °F 41.0 °F 51% 29.83 in 10.0 mi North 9.2 mph - N/A   Mostly Cloudy
11:15 AM 57.2 °F 41.0 °F 55% 29.84 in 10.0 mi NNW 9.2 mph - N/A   Scattered Clouds
11:35 AM 57.2 °F 44.6 °F 63% 29.86 in 10.0 mi NNW 11.5 mph 16.1 mph N/A   Scattered Clouds
11:55 AM 55.4 °F 44.6 °F 67% 29.86 in 10.0 mi North 6.9 mph - N/A   Partly Cloudy
12:15 PM 55.4 °F 44.6 °F 67% 29.87 in 10.0 mi North 12.7 mph 17.3 mph N/A   Partly Cloudy
12:35 PM 55.4 °F 46.4 °F 72% 29.88 in 10.0 mi NNW 12.7 mph 16.1 mph N/A   Partly Cloudy
12:55 PM 53.6 °F 48.2 °F 82% 29.88 in 10.0 mi NNW 8.1 mph - N/A   Scattered Clouds
1:15 PM 53.6 °F 48.2 °F 82% 29.86 in 10.0 mi NNE 9.2 mph - N/A   Clear
1:35 PM 53.6 °F 48.2 °F 82% 29.87 in 10.0 mi North 9.2 mph - N/A   Clear
1:55 PM 53.6 °F 48.2 °F 82% 29.87 in 9.0 mi North 9.2 mph - N/A   Clear
2:15 PM 53.6 °F 48.2 °F 82% 29.87 in 10.0 mi North 8.1 mph - N/A   Clear
2:35 PM 53.6 °F 48.2 °F 82% 29.87 in 5.0 mi NNW 9.2 mph - N/A   Scattered Clouds
2:55 PM 53.6 °F 48.2 °F 82% 29.86 in 9.0 mi NW 8.1 mph - N/A   Partly Cloudy
3:15 PM 53.6 °F 48.2 °F 82% 29.85 in 10.0 mi WNW 8.1 mph - N/A   Clear
3:35 PM 53.6 °F 50.0 °F 88% 29.86 in 10.0 mi WNW 10.4 mph - N/A   Scattered Clouds
3:55 PM 53.6 °F 50.0 °F 88% 29.85 in 9.0 mi NW 10.4 mph - N/A   Partly Cloudy
4:15 PM 51.8 °F 50.0 °F 94% 29.85 in 10.0 mi NW 8.1 mph - N/A   Clear
4:35 PM 51.8 °F 50.0 °F 94% 29.86 in 8.0 mi NW 9.2 mph - N/A   Partly Cloudy
4:55 PM 51.8 °F 50.0 °F 94% 29.85 in 9.0 mi NW 9.2 mph - 0.01 in   Clear
5:15 PM 51.8 °F 50.0 °F 94% 29.85 in 10.0 mi NW 9.2 mph - N/A   Clear
5:35 PM 50.0 °F 50.0 °F 100% 29.85 in 7.0 mi NW 6.9 mph - N/A   Scattered Clouds
5:55 PM 50.0 °F 50.0 °F 100% 29.85 in 6.0 mi WNW 5.8 mph - 0.02 in   Mostly Cloudy
6:15 PM 50.0 °F 50.0 °F 100% 29.84 in 9.0 mi NNW 4.6 mph - N/A   Mostly Cloudy
6:35 PM 50.0 °F 50.0 °F 100% 29.84 in 9.0 mi West 5.8 mph - 0.01 in   Mostly Cloudy
6:55 PM 50.0 °F 50.0 °F 100% 29.83 in 7.0 mi WNW 5.8 mph - 0.02 in   Overcast
7:15 PM 50.0 °F 50.0 °F 100% 29.82 in 9.0 mi WNW 4.6 mph - N/A   Overcast
7:35 PM 50.0 °F 50.0 °F 100% 29.82 in 10.0 mi West 5.8 mph - N/A   Mostly Cloudy
7:55 PM 48.2 °F 48.2 °F 100% 29.83 in 10.0 mi West 6.9 mph - N/A   Overcast
8:15 PM 48.2 °F 48.2 °F 100% 29.83 in 10.0 mi WNW 8.1 mph - N/A   Overcast
8:35 PM 48.2 °F 48.2 °F 100% 29.83 in 10.0 mi NW 5.8 mph - N/A   Overcast
8:55 PM 48.2 °F 48.2 °F 100% 29.83 in 10.0 mi NW 3.5 mph - N/A   Overcast
9:15 PM 48.2 °F 48.2 °F 100% 29.82 in 10.0 mi SW 3.5 mph - N/A   Overcast
9:35 PM 48.2 °F 48.2 °F 100% 29.83 in 9.0 mi SSW 3.5 mph - N/A   Overcast
9:55 PM 48.2 °F 48.2 °F 100% 29.81 in 10.0 mi South 3.5 mph - N/A   Overcast
10:15 PM 48.2 °F 48.2 °F 100% 29.80 in 9.0 mi Calm Calm - N/A   Overcast
10:35 PM 48.2 °F 48.2 °F 100% 29.80 in 9.0 mi Calm Calm - 0.01 in   Overcast
10:55 PM 48.2 °F 48.2 °F 100% 29.81 in 8.0 mi WSW 3.5 mph - 0.01 in   Unknown
11:15 PM 48.2 °F 48.2 °F 100% 29.79 in 10.0 mi Calm Calm - 0.01 in   Unknown
11:35 PM 48.2 °F 48.2 °F 100% 29.78 in 10.0 mi SE 3.5 mph - 0.01 in   Overcast
11:55 PM 48.2 °F 48.2 °F 100% 29.79 in 10.0 mi Calm Calm - 0.01 in   Overcast